Regional Weather Roundup
Issued by NWS Wakefield, VA

Home | Current Version | Previous Version | Text Only | Print | Product List | Glossary Off
Versions: 1 2 3 4 5 6 7 8 9 10 11 12 13 14 15 16 17 18 19 20 21 22 23 24 25 26 27 28 29 30 31 32 33 34 35 36 37 38 39 40 41 42 43 44 45 46 47 48 49 50

000
ASUS41 KAKQ 130515
RWRAKQ

REGIONAL WEATHER ROUNDUP
NATIONAL WEATHER SERVICE WAKEFIELD VA
1200 AM EST SAT FEB 13 2016

Note: "fair" indicates few or no clouds below 12,000 feet with no
significant weather and/or obstructions to visibility. * = Denotes
station may not report precipitation (e.g., rain,snow,etc.),
thunder or fog.

VAZ042-051-052>054-056-130600-
NORTHERN VIRGINIA

CITY           SKY/WX    TMP DP  RH WIND       PRES   REMARKS
WASH NATIONAL  CLOUDY    28  17  63 W6        30.02S
DULLES         FAIR      24  18  77 W6        30.00S
FORT BELVOIR   MOCLDY    27  18  68 CALM      30.01F
QUANTICO       FAIR      29  14  53 VRB5      30.03F
FREDERICKSBRG* CLOUDY    26  20  77 CALM      30.01S
STAFFORD*      CLOUDY    24  16  70 CALM      30.05S
WARRENTON      CLOUDY    25  22  88 NW3       30.00R
CULPEPER*      LGT SNOW  26  20  79 CALM      30.02R
MANASSAS*      FAIR      25  21  86 CALM      30.01F
LEESBURG*      FAIR      28  21  74 NW9G21    30.00F
WINCHESTER     FAIR      27  14  59 NW15      29.97S WCI  15
FRONT ROYAL*   CLOUDY    27  14  59 W16G23    29.97S WCI  14
LURAY*         MOCLDY    25  19  80 W6        29.97S
$$

VAZ048-049-060>072-079>083-130600-
CENTRAL AND SOUTH CENTRAL VIRGINIA

CITY           SKY/WX    TMP DP  RH WIND       PRES   REMARKS
RICHMOND       MOCLDY    27  20  75 NW3       30.01S
CHESTERFIELD*  CLOUDY    27   9  46 CALM      30.02R
PETERSBURG*    CLOUDY    24  21  89 CALM      30.02R
HANOVER        CLOUDY    27  16  63 W3        30.02S
TAPPAHANNOCK*  CLOUDY    27  20  77 CALM      30.01F
QUINTON*       CLOUDY    24  21  88 CALM      30.01S
CHARLOTTSVILLE CLOUDY    32  11  41 NW12G20   29.98R WCI  23
GORDONSVILLE*  CLOUDY    26  20  79 CALM      29.99R
ORANGE*        MOCLDY    28  21  74 CALM      30.01R
LOUISA*        CLOUDY    28  19  69 CALM      29.98R
BUMPASS*       CLOUDY    26  19  73 CALM      30.00S
FARMVILLE*     CLOUDY    30  20  66 CALM      29.99S
CREWE*         CLOUDY    30  19  64 CALM      30.00S
FORT PICKETT*  CLOUDY    28  19  68 SW5       30.00S
CHASE CITY*    CLOUDY    29  19  65 W3        30.01S
CLARKSVILLE*   CLOUDY    30  19  64 CALM      30.02R
SOUTH HILL*    CLOUDY    27  19  74 SW5       30.07S
LAWRENCEVILLE* CLOUDY    26  20  79 CALM      30.02R
EMPORIA*       MOCLDY    27  19  74 SW5       30.04R
$$

VAZ088>098-130600-
SOUTHEAST VIRGINIA

CITY           SKY/WX    TMP DP  RH WIND       PRES   REMARKS
NORFOLK        FAIR      27  21  78 W3        30.01S
VIRGINIA BEACH FAIR      28  21  75 W5        30.00F
NORFOLK NAVAL  MOCLDY    28  22  78 W9        30.02S
WEST POINT*    CLOUDY    27  22  81 W3        30.03S
SALUDA*        CLOUDY    26  22  87 CALM      30.01S
NEWPORT NEWS   FAIR      26  22  84 W3        30.02R
LANGLEY AFB    FAIR      24  21  90 W5        30.01R
FORT EUSTIS    FAIR      26  24  91 W5        30.00R
WILLIAMSBURG*  MOCLDY    27  25  93 CALM      30.02S
HR EXEC AP*    CLOUDY    21  18  86 CALM      30.03S
FRANKLIN*      MOCLDY    26  21  80 CALM      30.02S
US460-WAKEFLD  FAIR      20  17  88 CALM      30.02R
$$

VAZ020-022-025-037-045-130600-
WEST CENTRAL AND SOUTHWEST VIRGINIA

CITY           SKY/WX    TMP DP  RH WIND       PRES   REMARKS
STAUNTON*      MOCLDY    30  15  55 NW7       29.98S
WAYNESBORO*    CLOUDY    26  10  52 NW7       29.95R
HOT SPRINGS VA LGT SNOW  16  11  80 W24G44    29.78S WCI  -3
LYNCHBURG      CLOUDY    31  15  52 NW9G16    30.00R
DANVILLE       CLOUDY    36  18  48 NW10      30.03R
SOUTH BOSTON*  CLOUDY    30  19  61 CALM      30.02S
MARTINSVILLE   CLOUDY    32  14  47 NW13G25   30.04S WCI  22
ROANOKE        FAIR      31  10  41 NW18G35   30.01R WCI  19
BLACKSBURG     CLOUDY    26  16  65 W16G28    29.99S WCI  14
DUBLIN*        FLURRIES  27  19  72 W21G32    30.00S WCI  13
MARION*        LGT SNOW  26  20  78 W20G29    30.02S WCI  13
HILLSVILLE*    MOCLDY    24  18  77 NW28G39   29.91F WCI   8
RICHLANDS*     LGT SNOW  22  18  86 NW17G25   30.04R VSB 3/4 WCI   8
WISE*          CLOUDY    25  10  54 W20G28    30.09S WCI  11
ABINGDON*      LGT SNOW  28  24  85 W9        30.09S
$$

MDZ021>025-VAZ099-100-130600-
SOUTHERN MARYLAND AND THE DELMARVA PENINSULA

CITY           SKY/WX    TMP DP  RH WIND       PRES   REMARKS
PATUXENT RIVER CLOUDY    27  19  72 W6        30.01S
BAY BRIDGE APT   N/A     28  18  64 W9        30.01F
LEONARDTOWN    CLOUDY    27  18  69 CALM      30.02S
DOVER          PTCLDY    23  21  92 W2        29.97F
GEORGETOWN     MOCLDY    22  20  92 SW3       29.99F
EASTON         PTCLDY    28  19  68 NW10      30.03S WCI  19
CAMBRIDGE      MOCLDY    25  19  80 CALM      30.00R
SALISBURY      CLOUDY    23  19  85 CALM      29.99F
OCEAN CITY     CLOUDY    23  19  85 W3        30.00S
WALLOPS ISLAND MOCLDY    23  20  88 NW3       30.00F
ACCOMACK*      MOCLDY    23  21  93 W3        30.00S
$$

NCZ012>017-030>032-130600-
NORTH CENTRAL AND EASTERN NORTH CAROLINA

CITY           SKY/WX    TMP DP  RH WIND       PRES   REMARKS
ROANOKE RAPIDS MOCLDY    28  23  80 W5        30.03S
RALEIGH        MOCLDY    31  23  72 W5        30.03S
ELIZABETH CITY PTCLDY    24  23  96 W6        30.02R
AHOSKIE*       NOT AVBL
EDENTON*       CLOUDY    31  28  90 NW6       30.02F
CURRITUCK*     CLEAR     26  26  98 CALM      30.02S
KILL DEVIL HLS PTCLDY    30  29  95 NW6       29.99S
MANTEO         CLOUDY    31  30  94 NW13      30.01S WCI  22
CAPE HATTERAS  CLOUDY    35  33  92 NW9       30.00S
TARBORO*       CLOUDY    30  26  86 W3        30.05S
GOLDSBORO      CLOUDY    30  30 100 W5        30.02F
WASHINGTON     MOCLDY    28  26  93 W5        30.03S
GREENVILLE     MOCLDY    30  28  93 W3        30.05F
NEW BERN       CLOUDY    31  29  92 W7        30.05S
WILMINGTON     CLEAR     31  28  89 NW3       30.04F
$$

VAZ048-130600-
ELSEWHERE

CITY           SKY/WX    TMP DP  RH WIND       PRES   REMARKS
HARRISBURG PA  MOCLDY    21  15  78 CALM      29.95F
BALTIMORE      CLOUDY    23  17  78 W3        29.99F
ANNAPOLIS      CLOUDY    27  17  66 W5        30.00F
ANDREWS AFB    CLOUDY    27  17  66 VRB6      29.99S
PHILADELPHIA   CLOUDY    24  15  68 W10       29.98F WCI  14
HENDERSON NC   CLOUDY    31  21  67 SW3       30.02S
GREENSBORO     CLOUDY    37  20  50 NW15G25   30.01R
ROCKY MOUNT    CLOUDY    30  26  85 CALM      30.04S
$$

VAZ100-130600-
MARINE

STATION/POSITION TIME  TEMP    WIND        PRES    WAVE   SWELL
                       AIR SEA DIR/SP/G            HT/PER HT/PER
                 (UTC) (F)     (DEG/KT/KT) (MB)    (FT/S) (FT/S)
BRANDYWINE LGT   0400   25     280/  7/ 11 1015.3F
CAPE MAY NJ      0400   26 38  270/  6/  8 1015.1F
LEWES DE         0400   23 38  260/  5/  6 1015.4F
15NM E FENWICK I 0450   27 42              1015.3F   1/ 8
OCEAN-CITY-INLET 0400   25 40  290/  4/  5 1015.1F
WACHAPREAGUE VA  0400   24 37   CALM  /  1 1015.8F
THOMAS POINT MD  0500   27 36  290/ 10/ 11 1016.9F
GOOSES REEF MD   0500   29 37  300/ 10/ 12 1017.3R   1
COVE POINT MD    0400   27     290/  5/  7 1016.7S
SOLOMONS ISLAND  0400   29 39  250/  7/  7   N/A
PINEY POINT MD   0400          290/  5/  6   N/A
POTOMAC MD       0500   29 38  300/ 10/ 12 1015.1S   0
CAMBRIDGE MD     0400   26 37  200/  2/  3 1015.2F
LEWISETTA VA     0400   26 36  260/  4/  5 1015.8F
RAPPAHANNOCK LGT 0400          270/ 13/ 15 1016.0F
STINGRAY PT      0500   29 40  280/ 10/ 12 1016.0S   0
YORK RVR RNG VA  0400   29     290/  8/ 11 1015.3F
YORKTOWN VA      0400   27 41  250/  3/  4 1015.9F
JAMESTOWN VA     0500   27 40  280/  4/  6   N/A     0
DOMINION TERM VA 0400   28     300/ 11/ 13 1016.0F
KIPTOPEKE VA     0400      39  300/ 12/ 15   N/A
CHES BAY BRIDGE  0400   29 41  270/ 14/ 16 1015.7F
CAPE HENRY VA    0400   28     270/  8/ 10   N/A
CHESAPEAKE LGHT  0400   29     300/ 17/ 18 1016.7F
WILLOUBY STN VA  0400   28     290/ 11/ 13 1016.9F
CAPE HENRY BUOY  0428      41                N/A     2/ 3
1ST LANDING BUOY 0500      41                N/A     1/ 4
CAPE CHARLES BUO 0426      42                N/A     2/ 3   2/ 6
OFFSHORE WE BUOY 0421      44                N/A     2/ 3   2/ 6
64NM E OF VA BCH 0450   37 48  300/ 19/ 23 1014.2F   2/ 3   2/ 6
DUCK PIER NC     0400   29     290/ 14/ 16 1015.3S
44100 DUCK FRF   0424      45                N/A     2/ 3
44056 DUCK FRF   0411      42                N/A     2/ 5
OREGON INLET NC  0400   32 41  300/ 11/ 13 1015.6F
HATTERAS NC      0400   35 45  300/ 12/ 14 1015.4F
DIAMOND SHLS NC  0450   43 71  300/ 17/ 23 1015.4S   5/ 8   5/ 8
$$



USA.gov is the U.S. government's official web portal to all federal, state and local government web resources and services.